KC5TXI Weather Reports


time (UTC)temp
C
wind
direction
speed
KPH
gust
KPH
rain 1hr
cm
rain 24hr
cm
rain mn
cm
humidity
%
barometer
mb
20260506015016 23 325 3.2 4.8 0.00 0.00 0.00 70 1007.9
20260506014514 23 177 0.0 0.0 0.00 0.00 0.00 70 1007.8
20260506014009 23 303 3.2 4.8 0.00 0.00 0.00 70 1007.8
20260506013508 23 222 3.2 8.0 0.00 0.00 0.00 69 1007.8
20260506013004 23 224 1.6 3.2 0.00 0.00 0.00 69 1007.8
20260506012500 23 304 3.2 3.2 0.00 0.00 0.00 69 1007.3
20260506011957 24 357 8.0 9.7 0.00 0.00 0.00 68 1007.1
20260506011454 25 77 6.4 9.7 0.00 0.00 0.00 68 1007.1
20260506010951 25 85 1.6 1.6 0.00 0.00 0.00 65 1007.4
20260506010450 25 181 1.6 1.6 0.00 0.00 0.00 65 1007.3
20260506005946 25 195 0.0 1.6 0.00 0.00 0.00 65 1007.1
20260506005444 25 182 1.6 1.6 0.00 0.00 0.00 65 1006.9
20260506004938 25 277 3.2 3.2 0.00 0.00 0.00 65 1007.0
20260506004437 25 82 1.6 3.2 0.00 0.00 0.00 65 1006.7
20260506003932 26 259 1.6 3.2 0.00 0.00 0.00 65 1006.9
20260506003429 26 194 1.6 1.6 0.00 0.00 0.00 64 1006.8
20260506002925 26 55 4.8 8.0 0.00 0.00 0.00 63 1006.8
20260506002421 26 57 1.6 3.2 0.00 0.00 0.00 62 1006.5
20260506001917 26 264 6.4 9.7 0.00 0.00 0.00 61 1006.7
20260506001414 27 312 4.8 8.0 0.00 0.00 0.00 61 1006.6
20260506000911 27 222 4.8 8.0 0.00 0.00 0.00 61 1006.7
20260506000409 27 193 1.6 3.2 0.00 0.00 0.00 61 1006.7
20260505235905 27 234 1.6 1.6 0.00 0.00 0.00 61 1006.6
20260505235404 28 51 3.2 4.8 0.00 0.00 0.00 60 1006.4
20260505234900 28 125 1.6 1.6 0.00 0.00 0.00 60 1006.1
20260505234358 28 280 8.0 11.3 0.00 0.00 0.00 59 1006.2
20260505233854 29 200 1.6 3.2 0.00 0.00 0.00 57 1006.3
20260505233352 30 160 0.0 1.6 0.00 0.00 0.00 55 1005.9
20260505232849 30 190 0.0 0.0 0.00 0.00 0.00 53 1005.8
20260505232347 30 2 1.6 3.2 0.00 0.00 0.00 52 1005.8
20260505231843 30 258 3.2 3.2 0.00 0.00 0.00 51 1005.7
20260505231341 30 332 3.2 8.0 0.00 0.00 0.00 51 1005.7
20260505230839 31 178 0.0 0.0 0.00 0.00 0.00 52 1005.5
20260505230336 31 175 3.2 3.2 0.00 0.00 0.00 59 1005.5
20260505225832 32 200 0.0 0.0 0.00 0.00 0.00 59 1005.5
20260505225330 32 187 4.8 4.8 0.00 0.00 0.00 58 1005.3
20260505224825 32 214 1.6 1.6 0.00 0.00 0.00 58 1005.1
20260505224323 33 199 0.0 1.6 0.00 0.00 0.00 54 1005.2
20260505223820 33 194 0.0 0.0 0.00 0.00 0.00 48 1005.0
20260505223317 33 202 0.0 0.0 0.00 0.00 0.00 46 1005.1
20260505222812 33 108 0.0 1.6 0.00 0.00 0.00 43 1005.0
20260505222309 34 206 0.0 1.6 0.00 0.00 0.00 44 1005.0
20260505221806 34 173 0.0 0.0 0.00 0.00 0.00 43 1005.0
20260505221303 34 195 0.0 0.0 0.00 0.00 0.00 47 1004.8
20260505220800 35 197 0.0 1.6 0.00 0.00 0.00 46 1004.9
20260505220257 35 181 0.0 0.0 0.00 0.00 0.00 49 1005.0
20260505215755 35 222 0.0 1.6 0.00 0.00 0.00 47 1005.1
20260505215252 34 204 1.6 3.2 0.00 0.00 0.00 49 1004.8
20260505214750 34 211 1.6 1.6 0.00 0.00 0.00 49 1004.9
20260505214247 33 204 1.6 1.6 0.00 0.00 0.00 50 1005.1
20260505213744 33 176 0.0 1.6 0.00 0.00 0.00 50 1005.2
20260505213242 33 207 1.6 3.2 0.00 0.00 0.00 50 1005.1
20260505212737 33 195 0.0 0.0 0.00 0.00 0.00 49 1005.1
20260505212235 33 189 0.0 0.0 0.00 0.00 0.00 50 1005.2
20260505211732 33 201 0.0 0.0 0.00 0.00 0.00 50 1005.4
20260505211229 33 222 1.6 1.6 0.00 0.00 0.00 50 1005.3
20260505210725 33 210 1.6 1.6 0.00 0.00 0.00 50 1005.3
20260505210222 33 211 0.0 1.6 0.00 0.00 0.00 52 1005.5
20260505205720 33 195 1.6 1.6 0.00 0.00 0.00 55 1005.7
20260505205218 33 204 0.0 0.0 0.00 0.00 0.00 54 1005.9
20260505204714 33 201 0.0 1.6 0.00 0.00 0.00 54 1005.8
20260505204212 33 188 4.8 4.8 0.00 0.00 0.00 51 1005.6
20260505203709 33 130 1.6 1.6 0.00 0.00 0.00 53 1005.7
20260505203206 33 195 1.6 1.6 0.00 0.00 0.00 55 1005.9
20260505202701 32 186 3.2 3.2 0.00 0.00 0.00 54 1006.0
20260505202158 33 208 0.0 0.0 0.00 0.00 0.00 56 1006.1
20260505201654 32 216 1.6 1.6 0.00 0.00 0.00 55 1006.2
20260505201153 32 181 1.6 3.2 0.00 0.00 0.00 56 1006.0
20260505200650 32 183 0.0 1.6 0.00 0.00 0.00 55 1006.3
20260505200147 32 220 3.2 3.2 0.00 0.00 0.00 56 1006.2
20260505195643 33 211 3.2 4.8 0.00 0.00 0.00 58 1006.2
20260505195140 32 182 3.2 4.8 0.00 0.00 0.00 58 1006.2
20260505194637 32 170 3.2 4.8 0.00 0.00 0.00 59 1006.3
20260505194133 32 239 0.0 0.0 0.00 0.00 0.00 59 1006.2
20260505193630 32 211 4.8 4.8 0.00 0.00 0.00 58 1006.4
20260505193127 32 241 1.6 3.2 0.00 0.00 0.00 56 1006.4
20260505192626 31 177 1.6 1.6 0.00 0.00 0.00 58 1006.1
20260505192123 32 247 1.6 3.2 0.00 0.00 0.00 59 1006.1
20260505191621 32 202 1.6 1.6 0.00 0.00 0.00 61 1006.3
20260505191119 31 161 3.2 3.2 0.00 0.00 0.00 62 1006.2
20260505190614 31 235 3.2 3.2 0.00 0.00 0.00 62 1006.3
20260505190110 31 174 3.2 4.8 0.00 0.00 0.00 61 1006.5
20260505185607 30 191 0.0 0.0 0.00 0.00 0.00 63 1006.3
20260505185103 31 238 3.2 4.8 0.00 0.00 0.00 62 1006.4
20260505184559 31 220 1.6 1.6 0.00 0.00 0.00 62 1006.4
20260505184056 31 191 3.2 3.2 0.00 0.00 0.00 62 1006.4
20260505183553 30 201 0.0 1.6 0.00 0.00 0.00 63 1006.8
20260505183051 30 42 3.2 4.8 0.00 0.00 0.00 64 1006.5
20260505182541 30 216 3.2 3.2 0.00 0.00 0.00 64 1006.7
20260505182038 30 217 1.6 1.6 0.00 0.00 0.00 66 1006.5
20260505181535 30 146 3.2 3.2 0.00 0.00 0.00 65 1006.7
20260505181032 30 225 1.6 3.2 0.00 0.00 0.00 65 1006.8
20260505180527 30 216 3.2 3.2 0.00 0.00 0.00 65 1006.5
20260505180026 30 202 1.6 1.6 0.00 0.00 0.00 66 1006.7
20260505175521 29 209 1.6 1.6 0.00 0.00 0.00 66 1006.8
20260505175018 30 192 1.6 3.2 0.00 0.00 0.00 67 1006.7
20260505174515 30 99 6.4 9.7 0.00 0.00 0.00 66 1006.9
20260505174011 30 216 1.6 3.2 0.00 0.00 0.00 67 1006.8
20260505173508 29 201 3.2 3.2 0.00 0.00 0.00 67 1006.7
20260505173004 28 196 0.0 1.6 0.00 0.00 0.00 69 1006.9
20260505172502 28 264 1.6 3.2 0.00 0.00 0.00 70 1006.9
20260505171957 28 202 3.2 3.2 0.00 0.00 0.00 70 1006.6
20260505171453 28 177 3.2 3.2 0.00 0.00 0.00 70 1006.8
20260505170950 28 258 1.6 3.2 0.00 0.00 0.00 69 1006.8
20260505170446 29 175 3.2 3.2 0.00 0.00 0.00 68 1007.0
20260505165936 28 193 3.2 4.8 0.00 0.00 0.00 67 1006.8
20260505165433 28 190 3.2 4.8 0.00 0.00 0.00 69 1006.8
20260505164928 28 211 3.2 3.2 0.00 0.00 0.00 70 1007.0
20260505164425 28 136 1.6 3.2 0.00 0.00 0.00 69 1007.2
20260505163923 28 209 1.6 1.6 0.00 0.00 0.00 69 1006.9
20260505163422 28 182 3.2 3.2 0.00 0.00 0.00 70 1007.0
20260505162920 28 216 1.6 3.2 0.00 0.00 0.00 70 1006.8
20260505162416 28 153 4.8 9.7 0.00 0.00 0.00 71 1006.6
20260505161913 27 172 4.8 4.8 0.00 0.00 0.00 71 1006.5
20260505161409 27 184 3.2 3.2 0.00 0.00 0.00 73 1006.5
20260505160907 27 198 6.4 8.0 0.00 0.00 0.00 72 1006.7
20260505160405 27 224 1.6 1.6 0.00 0.00 0.00 73 1006.8
20260505153344 26 201 3.2 4.8 0.00 0.00 0.00 76 1006.6
20260505152840 26 225 0.0 1.6 0.00 0.00 0.00 77 1006.6
20260505152337 26 178 1.6 3.2 0.00 0.00 0.00 77 1006.6
20260505151832 26 151 3.2 3.2 0.00 0.00 0.00 76 1006.6
20260505151328 25 234 3.2 4.8 0.00 0.00 0.00 78 1006.8
20260505150825 25 222 3.2 4.8 0.00 0.00 0.00 78 1006.7
20260505150322 25 218 3.2 4.8 0.00 0.00 0.00 80 1006.8
20260505140235 23 217 0.0 0.0 0.00 0.00 0.00 85 1006.7
20260505130159 21 202 0.0 1.6 0.00 0.00 0.00 89 1006.4
20260505124649 21 197 3.2 4.8 0.00 0.00 0.00 90 1006.2
20260505124146 21 264 4.8 8.0 0.00 0.00 0.00 90 1006.1
20260505123641 21 201 0.0 0.0 0.00 0.00 0.00 90 1005.9
20260505123138 21 178 3.2 3.2 0.00 0.00 0.00 91 1006.0
20260505122629 21 213 4.8 4.8 0.00 0.00 0.00 91 1005.9
20260505122126 21 195 0.0 0.0 0.00 0.00 0.00 91 1006.0
20260505121622 21 187 0.0 0.0 0.00 0.00 0.00 91 1005.8
20260505121119 21 209 3.2 8.0 0.00 0.00 0.00 91 1005.5
20260505120615 21 218 3.2 3.2 0.00 0.00 0.00 91 1005.6
20260505120111 21 182 0.0 1.6 0.00 0.00 0.00 91 1005.6
20260505115606 21 233 9.7 12.9 0.00 0.00 0.00 91 1005.7
20260505115104 21 197 1.6 1.6 0.00 0.00 0.00 91 1005.8
20260505114601 21 181 4.8 8.0 0.00 0.00 0.00 91 1005.8
20260505114057 21 208 3.2 3.2 0.00 0.00 0.00 91 1005.6
20260505113554 21 194 0.0 1.6 0.00 0.00 0.00 91 1005.6
20260505113050 21 191 1.6 1.6 0.00 0.00 0.00 91 1005.6
20260505112546 21 181 0.0 0.0 0.00 0.00 0.00 91 1005.6
20260505112045 21 186 6.4 8.0 0.00 0.00 0.00 91 1005.7
20260505111538 21 181 4.8 8.0 0.00 0.00 0.00 91 1005.7
20260505111034 21 208 0.0 0.0 0.00 0.00 0.00 91 1005.5
20260505110526 21 229 1.6 3.2 0.00 0.00 0.00 91 1005.6
20260505101952 21 183 0.0 0.0 0.00 0.00 0.00 89 1005.3
20260505101450 21 187 1.6 1.6 0.00 0.00 0.00 89 1005.4
20260505100946 21 206 4.8 4.8 0.00 0.00 0.00 89 1005.5
20260505100444 21 229 1.6 3.2 0.00 0.00 0.00 89 1005.6
20260505095939 21 155 4.8 4.8 0.00 0.00 0.00 89 1005.5
20260505095436 21 175 1.6 3.2 0.00 0.00 0.00 89 1005.5
20260505094932 21 138 1.6 1.6 0.00 0.00 0.00 88 1005.5
20260505094429 21 196 1.6 1.6 0.00 0.00 0.00 88 1005.6
20260505093926 21 209 1.6 3.2 0.00 0.00 0.00 88 1005.8
20260505093422 21 208 1.6 3.2 0.00 0.00 0.00 88 1005.7
20260505092920 21 206 3.2 3.2 0.00 0.00 0.00 88 1005.7
20260505092418 21 208 4.8 8.0 0.00 0.00 0.00 88 1005.8
20260505091915 21 184 4.8 4.8 0.00 0.00 0.00 88 1005.9
20260505091412 21 166 3.2 4.8 0.00 0.00 0.00 88 1006.0
20260505090910 21 239 1.6 4.8 0.00 0.00 0.00 88 1006.1
20260505090408 21 193 1.6 1.6 0.00 0.00 0.00 88 1006.0
20260505085905 21 188 1.6 1.6 0.00 0.00 0.00 88 1006.0
20260505085403 21 213 4.8 4.8 0.00 0.00 0.00 88 1006.1
20260505084901 21 187 3.2 3.2 0.00 0.00 0.00 88 1006.0
20260505084359 21 219 4.8 4.8 0.00 0.00 0.00 88 1006.2
20260505083856 21 210 1.6 1.6 0.00 0.00 0.00 88 1006.0
20260505083354 21 184 8.0 16.1 0.00 0.00 0.00 88 1005.9
20260505082850 21 143 3.2 4.8 0.00 0.00 0.00 87 1006.1
20260505082346 21 178 3.2 4.8 0.00 0.00 0.00 87 1005.9
20260505081843 21 196 4.8 4.8 0.00 0.00 0.00 87 1005.9
20260505081340 21 216 6.4 9.7 0.00 0.00 0.00 87 1005.9
20260505080836 21 199 6.4 9.7 0.00 0.00 0.00 87 1006.0
20260505080332 21 227 4.8 8.0 0.00 0.00 0.00 86 1006.1
20260505075827 22 195 1.6 3.2 0.00 0.00 0.00 86 1006.2
20260505075325 22 217 6.4 11.3 0.00 0.00 0.00 86 1006.4
20260505074822 22 204 4.8 4.8 0.00 0.00 0.00 86 1006.3
20260505074319 22 161 3.2 3.2 0.00 0.00 0.00 85 1006.3
20260505073817 22 248 3.2 4.8 0.00 0.00 0.00 85 1006.4
20260505073315 22 221 3.2 4.8 0.00 0.00 0.00 85 1006.2
20260505072811 22 194 1.6 3.2 0.00 0.00 0.00 85 1006.5
20260505072307 22 190 3.2 4.8 0.00 0.00 0.00 84 1006.9
20260505071803 22 206 4.8 9.7 0.00 0.00 0.00 84 1006.8
20260505071300 22 321 1.6 3.2 0.00 0.00 0.00 84 1007.0
20260505070758 22 205 4.8 8.0 0.00 0.00 0.00 84 1006.8
20260505070254 22 199 4.8 8.0 0.00 0.00 0.00 83 1007.1
20260505065749 22 193 1.6 1.6 0.00 0.00 0.00 83 1007.1
20260505065246 22 169 1.6 1.6 0.00 0.00 0.00 83 1007.1
20260505064744 22 171 4.8 8.0 0.00 0.00 0.00 82 1007.2
20260505064241 22 223 1.6 1.6 0.00 0.00 0.00 82 1007.1
20260505063738 22 186 3.2 3.2 0.00 0.00 0.00 82 1007.4
20260505063235 22 202 4.8 9.7 0.00 0.00 0.00 81 1007.3
20260505062731 22 233 3.2 3.2 0.00 0.00 0.00 81 1007.2
20260505062229 22 134 0.0 1.6 0.00 0.00 0.00 81 1007.5
20260505061725 22 198 1.6 3.2 0.00 0.00 0.00 80 1007.4
20260505061224 22 206 4.8 4.8 0.00 0.00 0.00 79 1007.3
20260505060721 22 214 3.2 3.2 0.00 0.00 0.00 79 1007.4
20260505060218 22 227 4.8 4.8 0.00 0.00 0.00 79 1007.2
20260505055713 23 216 3.2 3.2 0.00 0.00 0.00 78 1007.4
20260505055210 23 191 6.4 8.0 0.00 0.00 0.00 78 1007.1
20260505054707 23 110 1.6 3.2 0.00 0.00 0.00 78 1007.2
20260505054205 23 171 4.8 4.8 0.00 0.00 0.00 77 1007.2
20260505053703 23 214 3.2 3.2 0.00 0.00 0.00 76 1006.9
20260505053159 23 220 1.6 1.6 0.00 0.00 0.00 76 1007.2
20260505052655 23 86 4.8 8.0 0.00 0.00 0.00 76 1007.1
20260505052152 23 148 6.4 8.0 0.00 0.00 0.00 75 1007.2
20260505051649 23 154 4.8 8.0 0.00 0.00 0.00 75 1007.4
20260505051147 23 186 4.8 8.0 0.00 0.00 0.00 75 1007.4
20260505050645 23 197 4.8 8.0 0.00 0.00 0.00 75 1007.5
20260505050143 23 145 6.4 12.9 0.00 0.00 0.00 74 1007.5
20260505041613 23 204 8.0 11.3 0.00 0.00 0.00 74 1007.6
20260505041110 23 171 3.2 3.2 0.00 0.00 0.00 75 1007.8
20260505040607 23 200 3.2 3.2 0.00 0.00 0.00 74 1007.6
20260505040104 23 213 8.0 11.3 0.00 0.00 0.00 74 1007.5
20260505035600 23 206 4.8 9.7 0.00 0.00 0.00 74 1007.5
20260505035057 23 208 3.2 3.2 0.00 0.00 0.00 74 1007.7
20260505034553 23 208 4.8 9.7 0.00 0.00 0.00 73 1007.7
20260505034050 23 217 4.8 8.0 0.00 0.00 0.00 73 1007.5
20260505033548 23 202 4.8 4.8 0.00 0.00 0.00 73 1007.6
20260505033046 23 177 3.2 3.2 0.00 0.00 0.00 73 1007.7
20260505032543 23 151 3.2 8.0 0.00 0.00 0.00 73 1007.6
20260505032039 23 275 3.2 4.8 0.00 0.00 0.00 73 1007.7
20260505031537 23 179 8.0 11.3 0.00 0.00 0.00 73 1007.5
20260505031033 23 224 3.2 4.8 0.00 0.00 0.00 73 1007.6
20260505030530 23 211 1.6 1.6 0.00 0.00 0.00 73 1007.6
20260505030026 23 181 0.0 0.0 0.00 0.00 0.00 73 1007.7
20260505025522 23 206 3.2 4.8 0.00 0.00 0.00 73 1007.7
20260505025021 23 214 3.2 4.8 0.00 0.00 0.00 73 1007.9
20260505024517 23 180 3.2 4.8 0.00 0.00 0.00 73 1007.7
20260505024015 24 183 3.2 3.2 0.00 0.00 0.00 72 1007.8
20260505023512 24 229 3.2 9.7 0.00 0.00 0.00 72 1007.5
20260505023009 24 208 3.2 3.2 0.00 0.00 0.00 72 1007.6
20260505022507 24 194 4.8 8.0 0.00 0.00 0.00 72 1007.6
20260505022004 24 194 4.8 4.8 0.00 0.00 0.00 71 1007.5
20260505021500 24 161 4.8 8.0 0.00 0.00 0.00 71 1007.3
20260505020955 24 110 1.6 4.8 0.00 0.00 0.00 71 1007.4
20260505020451 24 201 3.2 3.2 0.00 0.00 0.00 71 1007.4
20260505015948 24 251 3.2 3.2 0.00 0.00 0.00 71 1007.3